This is the latest recevied weather packets stored in our database for station/object WS4FSC-7. If no packets are shown the sender has not sent any weather packets the latest 10 day(s).
| Time | Temp. | Humidity | Pressure | Rain* | Wind** | Luminosity | Snow |
|---|---|---|---|---|---|---|---|
| 1788052312 | 26.67° C | 85% | 1016 hPa | - | - | 0 W/m² | - |
| 1788052131 | 26.67° C | 86% | 1016 hPa | - | - | 0 W/m² | - |
| 1788049972 | 26.11° C | 87% | 1015 hPa | - | - | 0 W/m² | - |
| 1788047993 | 26.11° C | 89% | 1015 hPa | - | - | 0 W/m² | - |
| 1788047451 | 26.11° C | 89% | 1015 hPa | - | - | 0 W/m² | - |
| 1788045290 | 26.11° C | 90% | 1015 hPa | - | - | 13 W/m² | - |
| 1788044500 | 26.67° C | 90% | 1016 hPa | - | - | 29 W/m² | - |
| 1788044392 | 26.67° C | 90% | 1016 hPa | - | - | 29 W/m² | - |
| 1788043576 | 26.67° C | 90% | 1016 hPa | - | - | 41 W/m² | - |
| 1788043491 | 26.67° C | 90% | 1016 hPa | - | - | 41 W/m² | - |
| 1788041690 | 26.67° C | 90% | 1016 hPa | - | - | 103 W/m² | - |
| 1788040791 | 26.67° C | 91% | 1016 hPa | - | - | 111 W/m² | - |
| 1788039531 | 27.22° C | 89% | 1016 hPa | - | - | 82 W/m² | - |
| 1788039170 | 26.67° C | 89% | 1016 hPa | - | - | 76 W/m² | - |
| 1788038631 | 26.67° C | 89% | 1015 hPa | - | - | 73 W/m² | - |
| 1788038451 | 27.22° C | 89% | 1015 hPa | - | - | 79 W/m² | - |
| 1788037011 | 26.67° C | 89% | 1014 hPa | - | - | 91 W/m² | - |
| 1788035931 | 26.67° C | 89% | 1015 hPa | - | - | 96 W/m² | - |
| 1788035570 | 26.11° C | 90% | 1015 hPa | - | - | 95 W/m² | - |
| 1788033951 | 25.56° C | 91% | 1015 hPa | - | - | 77 W/m² | - |
| 1788033591 | 25.56° C | 92% | 1015 hPa | - | - | 72 W/m² | - |
| 1788032871 | 25.56° C | 92% | 1016 hPa | - | - | 55 W/m² | - |
| 1788032331 | 25.56° C | 93% | 1016 hPa | - | - | 45 W/m² | - |
| 1788031970 | 25.56° C | 93% | 1016 hPa | - | - | 41 W/m² | - |
| 1788031790 | 25.56° C | 92% | 1016 hPa | - | - | 39 W/m² | - |
* Rain since midnight (hover to see other rain measurements)
** Current wind speed in m/s (hover to see current wind gust speed)